www.pogodaiklimat.ru

Погода и климат >> Архив погоды >> Канада >> Montreal-Est


ПОГОДА в Montreal-Est

  • Прогноз погоды в Montreal-Est
  • Монитор погоды в Montreal-Est
  • Климат города

АРХИВ ПОГОДЫ в Montreal-Est

Время (UTC), дата Ветер
(напр.,м/с)
 
Видим.   Явления Облачность Т
(С)
Тd
(С)
f
(%)
Тe
(С)
Тes
(С)
Комфортность P
(гПа)
Po
(гПа)
Тmin
(С)
Tmax
(С)
R
(мм)
R24
(мм)
S
(см)
03 11.10 СВ 3 16 км 10/10 600 м
[]
-1.7 -5.6 75 -6 -6 1023.3 995.0
06 11.10 В 3 16 км 10/10 300 м
[]
-1.8 -4.0 85 -7 -7 1020.6 992.4 -3.7 -0.8
09 11.10 СВ 4 6000 м слаб. снег 10/10 300 м
[]
-2.3 -3.3 93 -8 -8 1017.5 989.4
12 11.10 СВ 3 4800 м слаб. снег 10/10 300 м
[]
-2.9 -2.9 100 -8 -8 1016.2 988.1 -2.9 -0.8
15 11.10 СВ 4 6000 м слаб. снег 10/10 300 м
[]
-2.6 -2.6 100 -9 -9 1015.2 987.1
18 11.10 СВ 5 16 км 10/10 300 м
[]
-2.0 -3.9 87 -8 -8 1013.5 985.5 -3.0 -1.7
21 11.10 С 4 16 км 10/10 300 м
[]
-1.2 -3.9 82 -7 -7 1012.4 984.4
00 12.10 С 4 16 км 10/10 300 м
[]
-1.7 -4.3 82 -7 -7 1012.1 984.1 -3.0 -1.1
03 12.10 СЗ 3 16 км 10/10 300 м
[]
-2.0 -4.7 82 -7 -7 1011.5 983.5
06 12.10 СЗ 4 16 км 10/10 300 м
[]
-2.1 -4.1 86 -8 -8 1010.6 982.7 -3.0 -1.1 17
09 12.10 СЗ 4 16 км 10/10 300 м
[]
-2.4 -5.2 81 -8 -8 1009.7 981.8
12 12.10 СЗ 3 16 км 5/0
[]
-3.5 -5.2 88 -8 -8 1009.1 981.2 -3.5 -1.1
15 12.10 СЗ 5 16 км 9/0
[]
-0.7 -5.1 72 -6 -5 1007.6 979.8
18 12.10 З 5 16 км ясно +1.1 -6.7 56 -4 -1 1006.1 978.4 -3.6 +1.2
21 12.10 СЗ 4 16 км ясно +2.0 -8.5 46 -2 -2 1004.5 976.8
00 13.10 ЮЗ 2 16 км 5/0
[]
+0.7 -4.7 67 -3 -3 1004.0 976.3 -3.6 +2.9
03 13.10 З 3 16 км ясно -0.9 -3.3 84 -5 -5 1003.7 976.0
06 13.10 З 5 16 км ясно -1.3 -3.5 85 -7 -7 1004.0 976.4 -3.6 +2.9 17
09 13.10 З 4 16 км ясно -2.5 -2.8 98 -8 -8 1004.3 976.6
12 13.10 З 2 16 км ясно -4.9 -4.9 100 -9 -9 1004.8 977.0 -4.9 +2.9
15 13.10 ЮЗ 1 16 км 5/0
[]
+0.4 -1.9 85 -2 +3 1005.3 977.6
18 13.10 Ю 2 16 км ясно +3.4 -6.4 49 +1 +8 1006.1 978.5 -6.6 +3.6
21 13.10 З 2 16 км ясно +4.3 -6.1 47 +3 +4 1006.5 978.9
00 14.10 С 2 16 км 5/0
[]
+0.2 -7.5 56 -2 -2 1008.9 981.0 -6.6 +4.9
03 14.10 СВ 3 16 км ясно -1.9 -5.9 74 -7 -7 1011.4 983.5
06 14.10 С 2 16 км 5/5 600 м
[]
-4.0 -6.3 84 -7 -7 1013.4 985.5 -6.6 +4.9
09 14.10 С 2 16 км 10/10 600 м
[]
-2.2 -5.7 77 -6 -6 1014.7 986.8
12 14.10 С 4 16 км слаб. снег 10/10 300 м
[]
-2.8 -4.2 90 -9 -9 1016.4 988.4 -4.1 +4.9
15 14.10 С 4 16 км 9/9 300 м
[]
-1.8 -4.0 85 -7 -7 1018.3 990.2
18 14.10 С 4 16 км 10/10 600 м
[]
0.0 -5.5 66 -5 -5 1019.2 991.0 -4.1 +0.1
21 14.10 СЗ 2 16 км 10/10 600 м
[]
+0.6 -5.5 64 -3 -3 1019.3 991.2
00 15.10 С 3 16 км 9/9 600 м
[]
-1.4 -4.7 78 -6 -6 1019.7 991.5 -4.0 +1.0
03 15.10 С 2 16 км 10/10 600 м
[]
-2.8 -2.8 100 -6 -6 1019.7 991.5
06 15.10 С 2 16 км ясно -4.6 -4.6 100 -8 -8 1018.8 990.6 -4.6 +1.0
09 15.10 С 2 3200 м слаб. снег 10/10 300 м
[]
-4.4 -4.4 100 -8 -8 1017.0 988.9
12 15.10 В 1 9000 м слаб. снег 10/10 600 м
[]
-4.4 -4.4 100 -7 -7 1015.3 987.2 -5.1 +1.0
15 15.10 ЮЗ 4 16 км {осадки} 9/9 300 м
[]
-2.6 -4.0 90 -8 -8 1013.5 985.5
18 15.10 ЮЗ 5 16 км {осадки} 10/10 600 м
[]
-1.2 -6.2 69 -7 -7 1010.2 982.2 -5.1 -1.1 2
21 15.10 Ю 5 16 км 10/10 600 м
[]
-0.2 -5.2 69 -6 -6 1006.5 978.7
00 16.10 Ю 6 16 км 10/10 1000 м
[]
-0.1 -4.8 71 -6 -6 1005.2 977.4 -5.1 +0.1
03 16.10 Ю 5 6000 м слаб. снег 10/10 300 м
[]
-1.0 -1.5 96 -7 -7 1003.1 975.4
06 16.10 Ю 3 11 км слаб. снег 10/10 200 м
[]
-1.2 -1.2 100 -6 -6 1001.3 973.7 -5.1 +0.1 22
09 16.10 СВ 2 4800 м слаб. снег {осадки} 10/10 600 м
[]
-2.3 -2.3 100 -6 -6 1001.2 973.6
12 16.10 С 4 4800 м слаб. снег {осадки} 10/10 200 м
[]
-2.8 -2.8 100 -9 -9 1002.9 975.2 -2.9 +0.1 0.5
15 16.10 СЗ 6 4800 м слаб. снег {осадки} 10/10 300 м
[]
-3.4 -5.1 88 -11 -11 1005.4 977.6
18 16.10 СЗ 7 16 км слаб. снег 10/10 300 м
[]
-3.9 -6.5 82 -12 -12 1007.4 979.5 -3.9 -1.1
21 16.10 СЗ 7 16 км слаб. снег 10/10 300 м
[]
-4.1 -6.6 83 -12 -12 1009.2 981.2
00 17.10 СЗ 5 16 км слаб. снег 10/10 300 м
[]
-3.9 -5.4 89 -11 -11 1010.7 982.7 -4.2 -2.8
03 17.10 СЗ 7 16 км слаб. снег 10/10 300 м
[]
-6.5 -9.2 81 -15 -15 1012.6 984.4
06 17.10 СЗ 7 11 км слаб. снег 10/10 300 м
[]
-9.2 -11.7 82 -18 -18 1015.2 986.9 -9.2 -1.1 51
09 17.10 СЗ 7 9000 м слаб. снег 10/10 300 м
[]
-9.1 -11.2 85 -18 -18 1017.1 988.7
12 17.10 СЗ 6 8000 м слаб. снег 10/10 300 м
[]
-9.7 -11.8 85 -18 -18 1020.0 991.5 -9.7 -1.1
15 17.10 СЗ 8 16 км слаб. снег 10/10 300 м
[]
-8.8 -12.1 77 -18 -18 1022.5 993.9
18 17.10 СЗ 6 16 км слаб. снег 9/9 600 м
[]
-7.6 -11.8 72 -16 -16 1024.0 995.3 -10.0 -7.4
21 17.10 З 6 16 км слаб. снег 10/10 600 м
[]
-7.3 -11.8 70 -15 -15 1024.4 995.7
00 18.10 З 5 16 км слаб. снег 9/9 600 м
[]
-7.4 -11.8 71 -14 -14 1024.1 995.4 -10.0 -6.3

 

Местоположение метеостанции Montreal-Est (Канада): широта 45.55 долгота -73.55 высота над уровнем моря 51 м.

В архиве по умолчанию представлена погода в Montreal-Est за последнюю неделю. Архивные данные за месяц целиком и за предыдущие месяцы, начиная с января 2011 года, Вы можете получить, выбрав интересующий диапазон дат из раскрывающегося списка и нажав кнопку "Ввод!".


*Определитесь, кто Вы:
робот инопланетянин человек

Внимание! Время в таблицах - всемирное. Для получения местного времени необходимо прибавить поправку, которая в Montreal-Est равна -5 ч.

Смотрите также архив погоды в соседних городах и на ближайших метеорологических станциях:

Погода в Mctavish (Канада) (6 км)
Погода в Saint Hubert Arpt (Канада) (11 км)
Погода в Montreal (Канада) (18 км)
Погода в Varennes (Канада) (23 км)
Погода в Lassomption Cda (Канада) (31 км)
Погода в L`acadie (Канада) (32 км)
Погода в Ste Anne de Bellevu (Канада) (32 км)
Погода в Ste Clotilde (Канада) (43 км)
Погода в Riguad 2 (Канада) (58 км)
Погода в Saint Polycarpe (Канада) (65 км)

Пояснения к столбцам:

Ветер - указаны скорость ветра в м/с - средняя за 10 мин, порывы в срок и между сроками (в фигурных скобках) и направление, откуда дует ветер: С - северный, СВ - северо-восточный, В - восточный, ЮВ - юго-восточный, Ю - южный, ЮЗ - юго-западный, З - западный, СЗ - северо-западный.
Видимость - горизонтальная дальность видимости в метрах или километрах. При видимости от 1 до 10 км при отсутствии осадков обычно наблюдается дымка, при ухудшении видимости до 1 км и менее - туман. В сухую погоду видимость может ухудшаться дымом, пылью или мглою.
Явления - указаны атмосферные явления, наблюдавшиеся в срок или в последний час перед сроком; фигурными скобками обозначены явления, наблюдавшиеся между сроками (за 1-3 часа до срока); квадратными скобками обозначены град или гололедные отложения с указанием их диаметра в мм.
Облачность - указаны через наклонную черту общая и нижняя облачность в баллах и высота нижней границы облаков в метрах; квадратными скобками обозначены формы облаков: Ci - перистые, Cs - перисто-слоистые, Cc - перисто-кучевые, Ac - высококучевые, As - высокослоистые, Sc - слоисто-кучевые, Ns - слоисто-дождевые, Cu - кучевые, Cb - кучево-дождевые. Подробнее классификацию облаков см. в Атласе облаков (PDF).
T - Температура воздуха - температура, измеренная на высоте 2 м над землей.
Td - Температура точки росы - температура, при понижении до которой содержащийся в воздухе водяной пар достигнет насыщения.
f - Относительная влажность воздуха - влажноcть воздуха, измеренная на высоте 2 м над землей.
Te - Эффективная температура - температура, которую ощущает одетый по сезону человек в тени. Характеристика душности погоды. При расчете учитывается влияние влажности воздуха и скорости ветра на теплоощущения человека.
Tes - Эффективная температура на солнце - температура, которую ощущает человек, с поправкой на солнечный нагрев. Характеристика знойности погоды. Зависит от высоты солнца над горизонтом, облачности и скорости ветра. Ночью, в пасмурную погоду, а также при ветре 12 м/с и более поправка равна нулю.
P - Атмосферное давление - приведенное к уровню моря атмосферное давление.
Po - Атмосферное давление - измеренное на уровне метеостанции атмосферное давление.
Tmin - Минимальная температура - минимум температуры воздуха на высоте 2 м над землей.
Tmax - Максимальная температура - максимум температуры воздуха на высоте 2 м над землей.
R - Количество осадков - Количество выпавших осадков за период времени, мм. При наведении курсора мыши на число - период времени, за который выпало указанное количество осадков.
R24 - Количество осадков - Количество выпавших осадков за 24 часа, мм.
S - Снежный покров - Высота снежного покрова, см. При наведении курсора мыши на число - состояние снежного покрова и степень покрытия местности в баллах.